Wind_Speed
25 26 26 27 27 28 29 29 30 31 31 31 30 30 29 29 29 29 30 30 29 28 27 26 26 26 26 26 26 26 24 23 22 21 19 18 21 20 19 19 19 18 18 17 16 15 14 14 14 14 13 14 15 14 15 17 13 13 14 15 16 16 15 11 9 11 9 3 4 2 8 9 10 14 13 18 16 10 15 15 13 16 14 11 10 9 10 10
24 25 26 26 27 28 28 29 30 30 31 31 31 31 30 30 30 30 30 30 30 29 27 27 27 26 26 26 27 27 25 25 24 22 21 21 21 21 21 20 20 19 18 17 16 15 14 13 12 12 12 12 13 14 15 16 15 15 14 15 16 15 12 10 8 7 7 4 3 1 8 10 8 12 13 16 17 13 15 14 13 14 14 12 11 10 10 11
24 25 25 26 27 27 28 29 29 30 30 31 31 31 30 31 30 30 30 30 31 29 28 27 27 27 26 26 27 27 26 26 25 23 24 23 22 22 23 22 22 21 19 18 17 15 12 11 12 13 12 13 13 14 15 15 16 16 16 16 16 14 10 9 10 7 5 3 2 2 7 9 8 11 12 16 17 16 16 16 16 17 15 14 13 11 11 11
24 24 25 25 26 27 28 29 29 30 30 30 30 30 31 31 31 31 31 31 31 29 28 28 27 27 26 26 26 25 26 25 24 26 26 24 23 24 24 24 23 22 21 20 18 17 14 11 14 14 13 14 14 14 15 15 16 16 18 17 13 12 11 9 11 11 8 5 3 3 7 8 10 12 12 15 15 16 18 16 18 19 16 15 14 12 12 12
23 24 24 25 25 26 28 29 29 30 30 30 30 30 30 31 31 31 31 31 31 30 29 29 29 27 26 26 25 25 24 19 23 30 27 25 26 26 25 24 24 23 22 22 21 19 17 15 15 15 15 15 15 16 16 15 16 15 17 19 14 10 10 9 9 12 11 9 6 4 7 7 10 13 14 15 14 15 15 14 19 20 17 15 14 14 13 13
24 24 24 24 24 25 27 28 29 30 30 30 30 30 30 30 31 31 31 31 31 30 29 29 29 28 27 27 25 26 23 15 18 26 26 27 28 27 27 26 24 24 24 24 23 22 20 18 17 17 17 17 16 17 16 16 17 16 15 18 19 13 10 9 8 12 12 10 9 6 6 7 9 13 15 16 13 14 13 13 21 22 18 16 14 15 14 13
24 24 24 24 24 25 26 27 28 29 30 30 30 30 30 30 30 31 32 31 31 30 29 29 29 28 28 27 27 26 27 23 19 21 23 27 29 28 29 27 26 25 24 24 23 23 22 20 20 19 17 17 17 16 16 15 17 18 15 15 17 16 13 11 8 10 13 11 9 7 6 7 11 11 16 17 11 12 14 14 20 21 18 16 14 16 15 13
24 24 24 24 24 24 25 26 27 28 29 29 30 30 30 30 30 31 31 31 31 30 29 29 28 29 28 28 27 27 30 27 19 21 22 22 26 29 30 28 27 26 25 24 23 23 23 21 21 20 18 18 16 16 15 15 18 20 19 14 13 15 16 14 11 11 12 12 10 8 6 9 11 9 15 17 8 11 18 19 21 18 18 17 14 16 15 13
24 24 23 23 24 24 25 25 25 27 27 28 29 30 30 30 30 30 31 31 31 30 29 28 28 29 29 28 28 28 29 25 22 26 25 21 22 25 29 30 28 27 26 24 23 24 23 22 22 21 19 18 16 16 15 16 17 18 20 17 13 13 14 14 14 13 13 12 11 10 9 10 10 10 14 14 10 14 19 19 18 16 16 16 14 15 15 13
25 24 24 23 23 24 24 24 24 25 26 27 28 29 29 30 30 30 31 31 31 30 28 28 29 29 29 28 29 28 27 26 27 29 26 25 23 20 24 29 30 29 27 26 25 25 24 22 21 21 19 17 16 16 17 18 15 12 15 19 17 14 13 13 14 15 15 13 12 11 11 11 11 14 15 12 12 15 15 13 13 14 14 14 13 14 14 13
25 25 24 23 23 23 23 23 23 23 24 25 27 28 28 29 30 30 30 30 31 29 28 28 28 30 30 30 31 29 26 26 27 28 26 27 27 22 21 25 28 30 29 28 27 26 24 21 19 19 20 19 17 16 17 19 15 11 10 14 18 17 15 14 14 15 15 15 15 12 11 11 13 17 15 13 15 15 14 12 12 13 13 13 13 13 12 12
26 25 24 23 23 23 23 22 22 22 23 24 25 26 27 28 29 29 30 30 30 29 29 28 28 30 30 33 35 29 27 28 27 27 26 27 28 27 23 22 24 28 29 29 27 26 24 21 20 19 19 18 17 15 15 19 19 14 11 12 16 19 18 17 17 17 16 16 16 15 13 13 16 17 14 14 17 16 14 14 14 14 13 14 13 12 11 11
26 26 24 23 23 23 23 22 22 21 22 23 24 24 26 27 27 29 29 29 29 28 28 28 29 30 32 37 34 27 27 28 28 28 26 27 28 27 26 23 22 24 28 27 24 25 25 23 21 21 19 16 16 14 11 14 19 17 14 14 15 18 22 21 19 19 18 17 17 18 17 16 19 18 14 16 18 16 15 14 14 14 14 14 11 11 11 11
25 25 24 23 23 23 23 23 22 21 21 22 22 23 23 24 26 27 28 28 28 27 27 28 29 29 34 37 30 27 28 28 29 28 26 27 28 28 27 26 24 23 26 27 24 23 24 23 21 22 22 18 15 13 11 12 17 18 16 16 18 19 21 23 23 22 22 19 17 19 19 17 22 21 16 16 17 16 16 15 15 15 15 14 11 11 11 10
25 24 22 22 22 23 22 22 21 21 21 21 21 21 21 23 24 25 25 25 25 26 26 28 28 29 34 34 28 27 28 30 29 26 26 27 28 28 27 27 26 24 24 26 26 22 21 23 24 23 21 21 18 14 13 15 17 18 18 18 20 19 17 22 26 26 25 20 18 20 19 18 23 24 20 18 17 16 15 15 16 16 15 13 12 13 12 10
24 23 21 21 21 21 20 20 20 20 20 19 19 20 21 22 22 22 23 23 24 24 25 26 27 29 29 28 28 29 28 29 26 24 27 29 28 27 27 28 28 26 23 24 25 24 26 28 26 23 19 21 23 17 15 18 19 20 21 19 19 20 18 20 27 27 26 22 19 24 23 17 22 25 21 19 17 16 15 15 16 16 14 13 14 15 13 11
22 22 20 19 19 18 18 18 18 18 18 18 18 19 19 20 20 21 21 22 22 22 23 25 25 27 26 24 24 26 28 27 25 26 28 28 28 26 26 28 28 27 24 23 26 28 31 31 25 22 21 21 23 20 18 21 21 21 22 20 17 21 20 19 26 27 27 24 20 27 27 13 19 24 20 19 18 17 15 14 16 17 16 15 15 15 13 12
21 21 20 19 17 17 17 17 17 17 16 16 17 17 17 17 18 19 19 20 21 21 23 24 24 22 20 21 20 20 22 25 26 29 28 28 29 27 27 28 28 27 23 23 26 27 28 28 23 21 23 23 25 25 24 21 20 20 21 21 18 21 21 19 25 27 29 26 21 29 28 11 17 20 18 19 18 17 17 14 16 18 16 15 14 14 13 13
20 20 19 18 17 16 16 16 16 15 14 15 15 15 15 15 16 17 18 19 21 23 21 21 25 21 9 9 15 17 18 25 28 28 28 29 30 29 27 26 25 25 24 22 24 25 25 25 24 25 27 28 27 28 26 19 17 18 19 21 19 20 22 18 21 27 30 27 22 28 28 16 16 17 17 20 19 18 17 15 15 15 15 16 15 13 13 17
19 18 18 16 16 16 16 15 13 12 13 13 13 12 11 9 11 14 17 20 22 21 17 15 21 23 12 5 12 20 21 25 28 27 28 30 30 29 26 24 23 24 24 23 22 24 24 25 28 30 29 27 26 25 25 20 16 17 19 22 19 18 22 18 17 26 31 28 23 26 29 19 16 16 15 18 21 19 16 15 16 14 15 16 15 15 17 20
19 18 17 16 16 15 15 13 12 11 11 11 11 11 9 5 9 12 13 16 18 19 20 17 18 22 20 10 13 22 23 22 24 25 28 30 30 29 27 25 25 26 26 23 21 21 24 28 31 30 26 24 24 23 24 23 18 16 18 22 20 17 21 17 14 23 30 28 23 25 29 22 15 15 14 16 19 20 17 15 16 14 13 15 16 17 19 20
18 17 16 16 16 15 14 13 12 11 9 9 9 10 12 11 13 15 14 15 16 19 22 23 23 24 26 20 16 22 23 19 20 23 26 31 31 29 28 28 27 27 26 24 22 23 26 30 29 27 24 23 23 23 24 24 19 16 16 21 21 18 20 17 14 20 26 26 23 24 30 23 15 13 15 16 17 20 21 18 17 16 13 14 17 17 20 20
18 17 16 16 16 15 13 13 13 11 8 7 8 10 13 13 12 14 16 18 17 17 20 24 25 24 26 27 24 24 23 20 20 22 27 32 32 30 28 29 28 25 26 28 27 27 27 29 26 24 24 24 23 24 25 23 19 18 17 21 21 20 22 20 18 19 23 25 23 24 28 23 16 14 17 19 19 21 22 19 18 17 15 16 19 20 22 21
17 16 16 16 16 15 14 14 13 12 9 7 8 11 12 11 11 13 16 17 17 17 19 21 22 23 25 26 26 28 25 22 21 22 29 33 32 30 28 28 28 25 27 29 27 26 24 23 23 24 24 25 24 25 27 24 21 21 20 20 20 21 22 20 19 18 21 24 22 22 25 22 18 17 18 21 22 20 19 17 17 19 20 21 25 25 22 18
17 16 16 16 15 14 13 14 14 13 10 8 9 11 10 9 9 10 11 12 15 17 17 20 22 23 25 25 25 28 26 25 24 21 28 33 32 30 27 26 28 27 27 28 26 25 21 17 21 26 25 26 25 25 28 25 21 22 22 20 18 20 20 18 20 18 20 25 22 21 22 19 20 21 20 22 21 18 17 16 16 18 20 22 25 25 20 16
16 15 15 16 15 13 13 14 14 13 10 9 11 10 8 9 7 6 7 8 13 14 16 21 23 21 24 27 27 27 25 28 29 22 23 32 32 29 27 26 28 27 25 26 25 23 21 18 21 26 27 28 27 26 27 26 22 21 22 21 19 19 20 19 22 21 20 23 22 23 20 15 20 25 22 22 19 16 17 16 16 17 20 22 23 24 22 19
16 15 15 15 14 14 15 14 13 12 10 9 11 10 9 9 8 4 4 7 11 13 16 18 18 17 22 28 30 31 25 25 30 25 20 29 33 28 27 27 27 27 25 24 24 24 23 20 22 26 27 28 29 27 26 27 25 19 19 22 19 19 23 21 22 22 19 20 22 27 25 16 17 23 23 23 20 17 18 18 20 23 24 24 25 25 25 25
16 16 16 15 15 15 16 14 12 14 13 11 12 12 11 10 9 6 4 5 5 11 16 18 18 16 19 24 31 33 24 19 28 29 22 27 33 30 28 29 27 27 28 26 25 24 24 23 23 26 27 27 29 27 24 26 26 19 17 22 17 16 22 23 22 22 19 19 21 27 27 18 14 21 22 22 23 20 19 19 21 25 25 25 28 30 30 29
16 16 16 15 15 16 16 16 15 16 16 14 12 12 12 11 10 7 5 5 6 10 12 17 21 19 20 23 27 31 27 20 24 30 25 26 33 31 27 28 27 26 28 28 24 21 23 26 24 25 27 26 26 25 23 26 27 20 17 21 18 14 18 20 21 21 20 19 19 23 26 18 12 21 24 23 25 23 21 20 20 23 25 25 31 34 32 30
16 17 18 16 15 17 18 17 15 16 15 15 14 14 13 12 11 9 7 7 9 9 8 13 18 20 22 25 27 31 31 23 21 27 29 29 32 29 24 25 26 26 27 27 25 21 20 22 23 25 26 24 23 24 23 26 27 20 16 22 22 17 17 17 19 20 18 16 18 21 24 21 10 16 24 24 26 26 24 24 24 24 24 26 31 34 32 30
16 17 19 17 16 18 18 16 16 16 15 15 16 15 14 14 14 11 6 8 11 9 9 12 16 21 24 26 27 31 33 26 22 28 31 31 33 31 26 25 26 27 29 28 28 25 21 22 25 25 24 22 22 24 23 25 28 21 18 23 22 19 18 16 17 20 14 10 18 21 23 25 15 13 22 23 23 26 25 25 26 25 25 25 29 31 30 29
16 17 19 19 18 18 18 18 16 16 16 16 16 16 14 12 14 14 9 8 8 8 11 12 16 23 25 25 26 30 32 28 26 29 30 32 35 35 32 30 30 29 30 30 28 27 25 24 25 24 24 25 24 26 25 25 28 24 23 26 21 15 15 13 13 14 12 12 19 22 23 22 13 12 22 23 21 22 22 24 26 25 24 24 26 27 27 27
16 17 19 20 19 18 19 19 16 14 16 17 17 17 15 10 11 16 16 11 5 6 12 11 13 22 25 26 27 31 33 29 27 29 29 31 33 34 33 31 32 29 28 30 28 27 26 23 24 24 25 29 28 29 28 27 30 28 26 27 21 13 10 10 10 10 11 13 18 24 24 15 10 14 22 26 26 25 24 26 26 24 22 23 25 25 25 25
16 17 19 21 21 19 19 19 16 15 16 18 19 19 17 14 11 12 14 12 7 8 14 9 7 17 25 27 27 32 34 30 28 29 28 32 33 33 34 32 33 31 27 27 28 29 25 20 26 28 26 30 30 29 28 26 29 29 25 24 22 18 11 9 10 9 12 13 16 23 20 11 14 16 20 27 29 27 26 25 23 23 23 23 25 25 24 24
15 17 19 20 20 19 19 19 17 16 17 20 22 21 20 19 15 10 8 8 6 9 14 9 5 12 22 27 27 31 34 29 30 31 30 34 34 33 35 34 35 34 28 26 25 28 25 20 25 27 25 28 29 27 27 25 25 27 25 23 24 23 17 13 10 9 12 13 13 15 6 8 15 18 19 25 28 27 25 23 22 23 25 24 24 25 23 22
15 17 19 19 19 19 19 20 18 18 18 21 24 24 24 22 14 7 4 5 5 7 12 12 12 13 19 27 29 31 33 29 30 32 31 34 34 32 34 33 35 35 30 27 24 26 26 22 25 27 24 27 28 26 27 26 24 25 27 26 24 21 18 16 11 7 9 11 13 13 8 13 17 15 15 22 25 27 25 22 23 24 26 26 24 23 22 20
15 17 17 17 18 18 20 21 18 18 20 23 26 26 24 21 14 7 6 3 5 8 11 13 16 16 18 25 29 32 34 29 29 32 31 33 33 33 34 32 34 35 31 27 24 24 23 20 26 30 26 26 28 26 26 27 23 23 28 26 21 18 16 15 12 9 10 9 13 19 14 16 16 11 15 20 22 25 23 21 25 26 27 27 24 23 21 19
14 15 16 16 17 18 20 21 18 18 20 24 28 26 21 18 12 7 9 5 3 7 12 12 13 15 17 22 27 32 34 30 29 31 30 31 31 33 36 32 32 35 31 27 23 22 20 17 22 29 26 24 27 27 26 27 26 24 25 24 21 19 16 15 13 11 11 8 9 17 18 18 18 16 20 22 23 25 23 23 28 27 26 27 23 22 20 18
12 14 14 15 17 18 20 20 18 19 22 25 28 26 21 18 11 6 7 4 3 6 10 11 11 11 12 18 24 31 34 29 29 30 28 28 27 30 35 33 31 34 32 27 23 21 20 16 19 26 26 24 27 30 29 29 29 25 22 25 26 22 19 19 16 13 13 9 8 12 14 16 20 22 25 27 27 28 24 23 28 26 25 24 22 21 20 18
11 12 13 15 18 19 20 19 18 21 24 25 25 21 18 15 12 9 7 5 6 8 8 10 11 9 8 12 19 27 33 28 26 28 27 25 25 27 33 31 30 33 32 27 23 21 20 17 17 23 26 25 28 32 31 29 31 28 24 27 28 25 22 20 18 18 17 11 7 8 10 11 14 18 27 32 30 28 25 24 26 25 23 23 22 21 20 18
11 12 12 16 18 19 20 19 20 24 25 23 22 19 16 13 10 9 9 8 8 10 11 12 12 10 9 10 16 25 32 27 25 26 24 25 25 24 30 31 28 31 32 29 25 21 20 18 18 22 28 29 28 30 29 26 29 28 24 27 28 27 26 19 15 20 22 17 13 11 7 7 13 16 25 30 27 26 25 26 26 25 24 23 22 20 19 19
12 13 13 16 18 18 18 19 21 22 22 21 19 17 16 15 11 9 9 9 9 11 14 15 16 14 11 9 12 20 29 26 25 26 22 24 25 21 27 30 27 29 31 29 26 21 19 19 19 22 26 26 23 25 27 25 26 27 24 26 27 27 29 23 16 19 23 21 20 17 8 6 13 20 23 25 26 27 26 27 26 25 24 23 22 21 20 20
14 12 10 14 17 17 17 17 18 20 20 19 17 15 15 14 12 11 10 10 12 14 15 16 16 14 12 12 10 14 25 24 23 26 22 23 23 17 24 30 26 27 30 27 25 22 18 17 19 21 21 22 22 24 25 24 24 28 27 26 26 27 30 27 21 21 23 22 19 14 8 7 15 22 24 25 28 27 25 25 24 24 24 23 21 21 20 20
15 9 7 13 16 18 20 18 16 19 19 17 15 14 14 12 11 12 11 11 15 18 17 17 17 12 12 14 11 11 20 22 21 24 21 21 21 16 22 28 25 26 29 27 25 23 20 19 19 18 16 17 20 22 25 26 25 28 29 27 26 27 28 27 23 18 17 20 20 12 5 9 16 22 25 25 26 24 23 24 24 24 24 23 21 21 20 20
14 8 7 13 16 19 23 20 15 17 18 17 16 14 14 12 12 15 15 14 19 20 18 19 19 11 10 14 14 12 16 19 20 23 19 18 20 19 22 25 24 25 27 25 23 21 20 20 20 17 14 14 15 17 24 29 27 27 28 28 28 28 28 27 23 17 13 18 22 15 10 17 20 21 22 23 25 26 25 26 27 26 25 23 22 21 20 19
13 8 9 14 16 19 22 21 18 17 15 15 16 15 14 13 14 18 19 19 20 18 18 21 21 14 12 15 15 14 15 18 18 19 20 20 22 22 22 23 24 24 24 24 22 20 20 20 17 14 14 17 20 21 24 27 26 26 27 28 29 28 29 28 24 20 15 16 19 14 14 25 28 24 23 24 26 29 28 27 29 28 26 24 22 20 19 18
12 8 10 15 16 17 20 21 19 15 11 12 15 13 12 14 17 18 17 16 15 12 14 20 23 18 12 13 16 16 17 21 19 16 15 17 21 21 21 24 25 25 26 25 22 21 19 17 13 7 4 9 17 22 24 25 26 27 26 26 28 27 27 27 25 21 16 14 13 9 11 22 30 27 26 28 28 28 28 25 27 27 25 23 20 19 17 16
12 8 9 13 14 14 18 19 17 14 11 11 12 10 10 16 18 14 13 14 13 12 12 16 22 21 14 13 18 19 18 21 21 18 15 16 19 18 19 26 27 25 27 25 21 22 19 14 13 9 3 5 9 15 22 25 25 26 24 23 24 23 21 20 18 16 13 11 9 14 13 19 27 26 28 31 30 27 24 22 23 23 21 20 18 16 15 14
13 9 6 12 15 12 13 15 14 14 13 10 10 9 11 14 12 10 11 9 10 11 12 14 20 20 16 17 20 21 20 20 21 21 18 18 23 21 20 26 27 25 26 24 21 22 18 13 13 12 9 8 8 11 18 22 20 21 22 22 21 20 20 17 12 9 7 5 11 14 14 16 21 26 30 30 28 26 23 21 22 20 19 18 16 14 13 13
13 10 6 12 14 9 9 13 13 13 14 11 10 10 12 12 10 9 9 9 8 9 12 16 19 16 15 19 20 20 18 17 22 24 17 16 24 25 21 24 26 26 25 22 21 22 19 14 14 14 13 13 13 13 16 19 18 14 16 17 17 18 19 17 14 10 6 9 13 14 13 15 18 23 27 28 27 25 23 21 20 19 17 16 13 13 13 12
12 10 7 11 13 8 8 11 11 11 12 11 10 10 12 11 8 5 5 5 5 5 10 15 15 15 18 19 19 21 17 14 19 20 14 14 19 20 19 20 23 27 27 22 21 24 21 16 16 16 12 12 15 16 16 21 21 15 13 14 14 15 15 16 18 15 10 11 14 13 13 14 15 16 19 23 23 22 20 19 19 18 17 14 13 12 12 12
10 8 9 12 12 9 9 10 10 11 11 11 11 10 9 8 5 3 2 2 2 1 10 15 11 14 20 16 16 23 20 13 15 16 12 12 13 14 17 18 20 26 26 21 21 25 22 16 17 18 12 10 12 15 18 23 21 14 15 19 17 13 16 20 21 19 14 14 13 11 12 13 12 12 15 19 21 22 20 19 20 19 17 14 13 12 12 12
Wind_Direction
270 268 265 263 261 259 258 256 254 253 253 253 252 251 251 251 250 249 248 246 245 244 243 242 241 240 239 238 236 236 234 233 231 228 223 219 222 222 218 219 222 224 226 228 228 229 230 230 229 226 222 223 220 208 221 224 209 214 216 227 231 229 233 230 226 212 220 190 132 190 173 183 194 190 195 186 184 180 184 190 193 197 201 202 200 197 194 200
270 269 268 266 263 261 260 258 256 255 253 252 251 251 251 250 250 250 250 249 247 245 244 243 241 240 239 237 237 235 234 233 231 229 225 220 221 221 220 220 222 224 225 226 226 225 226 228 226 223 215 215 220 209 216 221 209 209 213 225 228 227 231 223 223 209 210 193 141 162 169 181 185 181 189 185 188 187 184 199 204 201 206 205 198 198 198 200
271 269 268 267 265 263 261 259 257 256 254 252 251 250 250 250 250 250 250 250 249 247 245 244 243 241 239 238 237 236 234 234 233 231 227 222 220 221 222 221 222 223 223 224 224 220 216 221 222 215 207 209 215 210 214 218 213 212 214 225 228 228 234 226 224 213 211 198 162 196 179 186 184 175 183 186 189 193 193 197 206 212 207 203 201 199 201 203
273 270 268 266 265 263 262 260 258 256 254 252 251 250 249 249 249 249 249 249 249 248 246 245 244 242 240 239 238 237 236 236 237 233 228 222 221 222 224 223 222 223 223 222 221 216 204 206 218 210 202 212 215 212 215 215 211 212 217 223 224 229 240 236 225 220 223 214 185 176 177 186 191 184 180 186 189 196 204 201 208 215 201 198 207 199 201 208
274 272 270 267 265 263 261 260 258 257 255 253 252 250 248 248 248 249 249 248 248 247 246 245 244 243 241 240 238 237 235 239 244 238 230 223 222 223 224 225 223 222 222 221 219 216 206 202 214 210 206 215 217 216 218 215 214 216 221 222 223 234 240 234 220 215 218 214 204 176 187 201 195 191 186 187 190 194 203 201 204 207 193 192 203 201 205 210
276 274 272 270 267 264 262 260 258 257 255 254 252 250 249 247 247 248 248 248 248 246 245 244 244 242 241 240 237 236 229 222 239 239 233 227 223 223 224 224 224 223 222 220 218 217 212 204 209 212 212 218 218 220 221 218 219 221 225 225 228 237 235 229 220 217 214 202 202 199 215 215 187 193 194 190 199 197 185 183 195 199 192 188 195 203 207 209
279 276 274 271 268 265 262 260 258 256 255 253 252 251 249 248 247 247 247 247 247 246 245 243 243 242 241 239 237 237 228 216 227 237 232 230 225 221 223 223 223 224 222 221 217 218 216 209 210 212 214 219 220 223 222 220 220 222 227 228 230 233 230 228 224 221 209 196 204 212 222 198 182 195 194 193 213 206 180 180 201 206 199 187 190 205 206 207
280 278 275 273 270 267 264 261 259 257 255 253 252 251 249 248 247 246 247 246 246 245 244 243 243 241 239 239 236 236 233 223 225 235 230 230 228 223 223 221 221 223 222 221 218 219 218 212 211 212 216 221 222 224 223 221 222 224 227 228 232 229 228 231 228 221 210 208 214 211 203 185 187 194 186 190 203 195 192 200 210 213 199 184 190 207 209 209
282 279 276 274 271 269 266 263 261 258 256 254 252 250 249 248 247 246 246 246 245 244 243 242 242 242 239 238 236 236 237 223 216 230 228 226 229 224 222 221 219 220 222 220 217 218 216 213 213 211 217 224 226 227 224 221 223 227 228 228 232 228 226 228 226 220 211 210 210 204 196 190 197 184 176 189 192 183 195 209 208 199 191 184 190 206 210 211
287 283 278 274 272 269 268 266 264 261 258 254 252 250 249 247 246 246 245 245 244 243 241 240 240 241 238 236 236 235 237 227 221 229 228 226 229 224 221 220 219 219 221 221 217 216 214 211 214 214 219 228 231 231 225 219 221 227 229 229 231 230 226 223 221 215 208 207 204 198 195 199 200 181 178 192 188 179 187 203 199 190 187 180 186 202 207 208
291 288 283 277 272 269 268 268 266 264 261 257 253 251 249 248 247 246 245 245 244 242 240 239 239 240 238 235 233 232 233 230 227 229 226 226 227 224 220 218 218 218 219 221 220 218 215 210 211 214 223 230 232 234 229 220 221 229 230 231 230 227 226 221 214 208 206 210 202 192 194 200 192 185 195 199 181 174 175 181 187 189 188 177 181 197 205 212
291 289 285 280 274 270 269 269 268 266 263 259 256 253 250 248 247 246 246 245 243 241 239 238 238 238 237 235 232 229 231 231 228 227 224 224 225 223 220 216 215 215 216 219 220 219 213 208 209 213 220 228 228 231 235 225 224 233 235 236 230 224 225 218 210 206 204 206 199 192 198 200 192 191 198 191 177 172 174 177 182 188 190 182 182 197 211 222
291 289 286 282 276 272 270 269 268 267 264 260 256 253 251 248 247 246 245 244 242 240 239 238 237 237 238 238 234 229 233 232 229 227 221 221 223 222 219 216 214 213 213 213 215 218 212 205 210 214 218 223 223 226 236 223 220 228 231 235 231 222 222 216 208 205 202 202 195 192 202 200 193 193 187 180 177 175 178 182 185 190 194 190 185 195 210 222
291 289 286 281 277 274 272 270 267 266 263 260 257 254 253 250 247 245 243 243 241 239 239 238 237 237 239 240 235 229 231 230 228 225 220 219 220 220 218 215 214 213 212 207 205 212 211 206 211 215 218 219 219 227 233 219 214 220 225 229 229 225 220 212 205 200 199 200 190 193 209 202 189 193 187 176 178 180 184 189 189 189 192 192 189 191 199 214
291 288 284 280 278 276 272 268 265 263 262 260 258 256 253 250 247 244 242 241 240 238 238 238 238 239 243 243 236 228 229 229 226 223 219 217 217 218 217 215 214 214 213 209 203 202 206 207 209 211 215 216 217 228 231 220 213 212 218 221 223 228 222 203 199 197 195 196 190 194 213 208 190 192 188 179 180 184 191 195 195 194 194 190 189 197 195 196
290 285 281 278 278 277 271 265 261 260 261 261 259 255 251 249 247 245 242 239 238 236 236 237 237 239 244 246 237 228 227 227 223 219 218 216 214 215 215 215 212 213 215 211 203 198 200 203 205 208 210 214 216 223 224 216 213 210 216 220 214 222 223 196 192 195 192 194 191 194 214 216 188 183 181 179 182 187 194 198 199 199 202 193 189 202 196 183
288 282 277 276 277 275 268 261 259 259 260 260 257 253 250 248 246 244 242 239 237 236 236 236 236 239 241 241 237 229 227 226 218 216 217 214 211 208 211 213 210 212 215 213 208 205 206 204 202 206 208 212 213 214 217 211 208 206 211 221 213 215 220 189 183 191 191 196 192 196 218 216 168 172 177 181 186 191 197 196 195 191 189 185 190 207 202 188
286 280 274 272 272 269 262 257 257 258 259 257 254 252 250 248 247 245 241 239 235 231 232 233 231 236 245 243 237 230 226 224 218 214 214 212 207 203 207 210 207 209 210 212 213 207 208 206 201 206 208 210 208 207 215 211 205 205 204 214 213 209 213 189 182 191 192 196 192 197 213 191 153 173 180 185 190 195 200 196 195 196 190 181 186 208 211 201
285 279 272 267 265 261 256 254 254 255 254 253 251 250 249 247 246 245 242 238 234 229 229 238 233 222 241 256 225 220 218 216 215 212 211 210 205 202 204 206 204 205 202 204 210 205 203 202 200 207 207 207 207 206 214 214 208 208 202 209 212 205 208 198 189 193 190 193 192 197 204 180 159 178 179 185 190 191 200 199 195 199 200 192 187 200 206 204
284 278 269 261 256 253 251 250 248 248 250 249 247 243 241 251 261 258 252 243 239 236 229 246 245 220 216 259 212 209 213 215 213 209 209 208 204 201 198 197 196 199 198 197 205 202 198 201 204 209 208 206 208 207 212 215 215 214 205 209 215 207 206 205 197 192 187 191 192 194 200 183 164 172 170 182 191 190 196 198 194 196 204 203 194 201 209 209
282 275 264 252 248 247 247 244 238 241 246 244 240 229 214 225 251 250 256 253 245 237 222 224 241 218 203 217 215 208 211 215 211 206 208 206 202 199 194 192 190 195 199 195 197 196 198 208 210 209 209 207 208 208 211 216 222 224 211 206 211 208 205 200 187 184 184 193 195 193 201 191 164 166 168 176 186 189 193 194 194 198 206 204 194 202 216 218
280 271 258 246 242 241 239 234 231 237 244 242 233 222 215 220 226 223 237 251 243 237 227 220 229 219 203 204 210 206 204 206 203 199 204 203 198 196 193 192 191 194 196 193 193 193 201 213 212 208 208 208 209 208 210 216 222 225 211 204 207 203 200 190 174 181 187 196 197 192 202 197 166 168 177 173 178 188 196 194 191 192 195 201 197 206 222 220
278 268 254 243 238 235 231 229 230 234 243 241 226 219 223 227 228 225 234 246 245 242 237 227 225 223 213 208 209 205 197 194 196 196 200 199 194 192 192 193 193 194 194 193 194 194 204 214 210 206 207 207 208 206 208 212 214 216 207 204 205 200 200 190 176 184 189 198 200 191 201 199 174 179 188 185 189 197 200 195 193 190 183 191 195 203 219 218
274 265 251 241 236 231 227 227 228 231 237 237 228 221 222 226 227 230 239 248 252 244 239 236 229 226 218 209 211 214 202 193 193 198 204 197 190 192 194 194 194 196 198 197 199 201 207 212 205 204 206 205 206 204 206 208 207 211 211 208 207 203 204 191 175 179 187 202 210 196 200 205 191 191 196 198 199 199 200 198 201 198 191 196 200 205 216 213
271 260 248 239 233 229 227 228 228 227 231 232 231 224 220 225 223 229 239 251 261 247 231 231 230 227 217 204 210 214 208 202 192 194 210 201 188 191 194 196 197 199 201 199 202 209 211 209 201 202 204 202 205 205 203 204 203 209 214 215 214 205 200 189 180 180 186 201 210 198 199 208 202 200 200 202 201 196 201 202 202 201 199 205 210 215 220 211
267 254 242 235 229 225 224 226 224 220 226 234 232 220 211 212 205 217 230 246 261 240 212 216 223 226 213 201 203 205 208 212 193 184 211 204 190 190 192 196 200 202 202 199 204 212 211 205 199 200 203 202 206 207 202 201 204 212 213 212 217 209 197 192 189 188 190 197 198 195 202 206 197 198 197 196 196 192 196 191 181 186 199 210 212 214 219 214
263 247 236 231 225 220 220 221 216 206 209 226 225 209 202 203 188 174 217 245 247 218 198 202 209 216 208 202 203 199 201 210 195 184 201 200 190 191 196 197 199 203 199 195 205 212 207 205 203 200 201 200 203 204 199 200 208 213 203 202 217 217 203 195 191 195 198 196 194 197 211 217 194 192 191 189 190 185 184 182 182 193 205 213 212 209 214 216
258 242 231 227 222 219 221 222 212 201 202 213 214 204 199 194 174 156 211 250 208 185 191 197 202 203 196 201 208 201 194 197 197 192 193 195 189 191 202 200 198 202 198 196 206 208 203 204 200 193 195 199 202 204 200 200 208 211 195 194 210 216 204 196 195 202 203 199 197 196 208 223 199 187 188 186 188 184 180 183 194 206 212 214 211 209 213 216
256 238 227 224 220 218 219 218 212 208 210 212 206 201 197 186 172 175 223 244 190 178 189 200 209 200 182 193 203 200 196 194 198 194 190 193 188 188 204 204 198 201 201 203 209 205 202 204 199 192 198 204 204 205 202 199 205 208 195 192 200 203 200 199 201 207 211 212 207 193 200 220 198 175 181 184 187 183 173 178 195 208 214 215 212 211 213 216
254 235 225 221 219 216 214 214 214 213 213 211 198 193 191 179 179 197 220 224 206 191 184 201 207 191 179 186 192 195 200 199 195 191 190 193 188 189 204 206 201 203 203 206 211 209 201 200 200 199 205 207 202 202 200 198 202 204 195 192 197 202 204 208 210 211 218 221 213 202 202 216 204 168 181 189 189 183 175 184 198 206 213 215 211 210 212 215
252 234 224 219 219 217 211 211 215 211 208 204 193 186 186 188 199 212 215 215 214 194 183 198 195 185 183 185 188 193 198 199 190 184 186 189 189 191 199 202 200 203 204 203 209 211 199 193 200 204 206 203 199 199 196 197 202 200 194 191 193 199 202 212 218 216 225 219 208 212 207 210 219 196 188 187 181 178 180 193 203 209 216 214 206 207 209 212
251 233 223 219 219 216 210 211 211 207 203 195 187 184 187 203 221 223 209 198 212 199 191 194 186 186 187 187 190 190 192 198 191 183 183 186 188 192 196 196 193 195 199 198 202 208 204 199 202 204 202 199 197 195 191 196 199 194 193 193 190 191 193 204 209 208 226 223 207 211 209 207 214 187 175 169 164 168 178 195 205 212 215 206 199 203 207 211
249 232 222 219 217 213 211 213 209 204 199 189 185 188 194 215 230 223 216 206 200 182 182 187 188 190 191 191 193 188 190 197 190 184 186 186 188 193 198 198 193 193 197 194 195 202 202 199 199 200 198 199 199 193 189 191 193 192 195 194 192 190 187 200 202 196 216 223 210 209 208 192 148 142 154 159 163 169 184 201 208 209 203 194 195 202 206 211
244 230 222 217 215 212 210 212 208 202 198 190 187 192 205 228 235 222 219 214 215 187 174 170 183 193 195 196 193 187 190 195 188 185 187 187 189 192 197 200 197 197 196 192 195 200 198 196 197 198 194 196 200 196 192 190 190 196 200 199 201 201 191 192 202 200 201 208 211 210 207 171 139 149 162 170 176 184 196 204 205 199 194 190 194 200 204 207
238 227 221 216 212 210 208 210 207 202 200 193 193 201 214 227 231 229 219 191 187 193 187 188 197 199 199 199 195 188 191 193 187 187 188 188 191 191 193 197 197 198 196 192 196 197 198 203 198 196 192 191 195 195 192 190 191 198 202 207 211 206 197 196 213 224 205 204 210 204 181 114 145 161 174 184 189 197 203 202 196 191 191 193 195 199 202 204
230 224 221 214 211 209 207 207 204 203 203 195 199 213 222 227 230 247 249 174 176 200 201 212 222 216 201 197 197 190 192 195 188 189 191 190 193 193 193 195 195 198 197 193 192 189 197 205 192 188 192 191 191 192 192 193 192 193 199 208 212 209 205 201 210 235 218 208 201 186 116 109 146 160 180 192 195 198 202 196 189 188 189 193 195 196 199 200
224 223 220 214 211 210 207 205 202 203 202 198 206 218 226 233 239 272 297 237 210 212 210 221 226 218 199 193 195 190 190 195 191 191 193 191 194 194 193 196 196 198 198 195 193 189 196 200 185 183 190 190 191 193 196 199 195 192 200 205 203 208 222 220 211 212 214 213 199 189 161 144 163 172 181 195 198 195 197 192 187 188 189 192 193 193 196 198
222 219 218 213 208 209 207 205 201 201 201 203 212 220 227 236 238 261 284 276 218 210 216 230 230 217 201 192 192 189 187 191 192 194 195 193 195 193 192 195 195 197 199 198 197 196 199 196 181 185 190 184 185 192 197 201 203 203 203 200 197 203 218 229 224 207 204 217 205 194 183 177 190 188 178 192 198 187 188 194 190 187 189 190 191 192 194 195
219 215 215 210 205 205 203 202 200 200 202 207 217 224 230 240 244 251 269 260 234 233 226 233 236 231 216 196 192 190 187 187 189 191 194 196 195 192 192 193 192 194 198 198 197 198 201 194 177 184 189 181 182 193 197 196 200 207 204 198 202 207 208 214 219 211 207 215 205 198 202 202 207 203 190 193 198 188 183 192 190 184 185 188 189 194 195 195
214 209 210 204 203 201 194 196 200 200 204 212 221 227 231 245 250 239 238 233 246 253 237 234 241 253 244 214 205 196 188 186 186 187 193 195 191 191 193 193 190 191 194 195 195 196 199 195 177 179 187 186 187 194 198 194 193 199 202 198 199 202 203 208 212 213 212 214 208 206 214 202 194 201 196 191 196 194 185 187 188 182 184 189 192 197 198 198
203 201 204 200 199 195 189 197 202 201 208 216 225 231 234 244 247 235 233 234 244 250 242 233 231 246 265 246 225 201 188 187 188 187 190 191 188 189 192 192 190 190 191 193 194 194 195 191 181 182 188 192 193 193 196 198 194 194 200 201 196 194 196 200 206 212 213 214 215 212 208 162 146 170 186 184 193 200 191 187 188 185 188 193 194 197 200 203
192 192 198 198 197 192 193 203 205 203 212 220 227 233 235 241 242 233 231 234 248 258 253 238 224 236 262 252 230 203 190 188 188 188 189 188 188 189 188 189 190 188 190 194 196 194 195 193 189 190 191 192 194 193 195 200 197 196 204 206 201 198 199 200 202 206 211 217 217 210 197 144 143 162 175 178 193 206 200 191 189 190 192 194 196 199 203 209
185 189 201 199 195 192 195 201 205 208 215 224 229 231 234 241 241 234 230 236 245 250 254 241 223 237 250 234 236 211 194 193 190 187 188 184 183 184 184 187 188 187 189 193 192 190 196 199 192 191 193 193 193 192 196 202 199 199 206 208 206 204 204 209 212 208 213 221 220 211 189 144 148 159 169 181 195 207 206 195 191 194 195 196 200 203 207 212
177 183 204 198 191 192 191 188 199 211 217 224 227 227 232 236 235 236 237 241 244 245 247 232 215 230 239 220 236 228 200 199 194 188 189 184 180 179 179 183 186 187 188 190 187 186 193 199 193 187 188 190 192 190 191 198 202 203 203 205 208 207 205 213 217 211 216 221 216 211 167 141 153 158 167 184 195 200 207 203 196 197 199 199 201 204 208 213
175 180 193 188 188 194 190 185 199 213 215 220 225 228 230 230 240 246 241 239 244 242 235 218 203 215 237 226 244 250 214 203 195 188 188 181 177 176 177 182 187 187 188 190 187 186 192 198 196 196 195 186 186 189 187 189 198 203 201 202 207 208 205 210 214 207 212 222 217 207 153 143 157 162 167 183 194 196 205 207 200 197 200 200 201 206 210 214
172 182 190 181 187 198 195 193 202 208 207 215 226 230 228 231 247 251 245 237 236 234 224 211 199 205 237 241 244 241 214 199 189 185 188 184 180 180 182 186 188 187 188 189 186 186 193 199 200 211 216 198 191 193 190 189 195 200 201 201 204 206 204 205 211 207 208 222 219 203 158 153 161 168 173 182 193 199 205 205 198 197 201 201 203 209 213 217
171 182 188 183 189 199 201 203 209 213 212 215 224 230 226 231 243 249 242 228 222 221 216 210 201 203 227 234 225 222 207 192 184 180 181 174 170 177 184 187 187 189 190 187 185 188 193 197 200 213 220 190 190 195 194 194 196 198 201 202 202 205 205 205 208 207 212 224 206 164 148 162 165 170 181 187 194 204 208 202 195 198 203 203 207 213 217 224
183 182 176 181 190 196 203 209 215 223 224 214 216 221 223 231 240 238 221 214 219 217 214 214 206 202 207 206 207 215 206 188 185 189 190 176 167 169 179 184 186 189 189 186 186 193 195 195 201 204 163 150 180 190 192 196 199 198 201 202 201 203 206 205 205 205 219 228 171 130 135 161 164 172 187 195 202 208 208 199 195 199 205 208 214 218 221 228
195 201 183 180 184 187 200 209 213 220 223 216 214 224 231 231 229 209 202 231 246 221 212 213 201 196 201 199 203 213 203 180 177 187 198 195 184 175 172 178 185 187 185 184 187 195 196 190 193 195 175 170 185 185 187 193 198 196 197 199 202 205 207 203 194 194 203 169 138 141 144 150 167 185 193 199 205 205 201 199 201 205 212 217 220 222 224 228
198 211 211 189 186 186 198 205 205 211 219 215 207 226 236 225 214 212 228 267 269 223 208 201 192 196 206 200 203 210 200 185 181 179 175 175 178 179 173 173 181 184 184 186 187 191 193 184 181 179 165 169 184 183 181 183 179 172 177 188 196 200 202 198 192 194 178 142 153 175 171 160 177 195 201 204 205 201 198 200 201 205 211 217 221 223 226 228
197 207 213 197 196 199 203 205 199 203 220 215 203 227 238 220 219 254 277 284 270 228 195 189 194 203 195 189 201 202 190 193 195 180 162 157 167 177 178 175 180 181 182 188 187 189 194 190 187 185 165 155 172 175 173 175 171 155 142 150 163 173 175 180 188 190 176 161 172 186 188 183 183 190 199 203 200 198 199 196 197 201 206 213 220 222 225 228
190 204 209 201 199 194 195 206 203 206 216 203 198 228 235 211 226 296 23 51 324 152 156 167 189 193 175 171 194 191 178 182 188 179 178 175 166 171 173 172 179 181 181 187 189 189 196 195 191 190 173 153 170 170 162 165 166 162 157 151 146 157 172 178 185 182 167 167 178 183 196 203 193 186 192 191 189 193 195 191 194 201 205 213 219 220 225 233
Height
3084 3084 3083 3084 3084 3085 3085 3086 3086 3087 3088 3089 3090 3091 3092 3092 3093 3094 3094 3095 3096 3097 3099 3100 3101 3103 3104 3105 3107 3108 3109 3111 3112 3113 3115 3116 3115 3116 3118 3119 3120 3122 3123 3124 3125 3127 3128 3130 3131 3132 3134 3135 3136 3140 3141 3140 3143 3145 3146 3147 3146 3146 3145 3145 3145 3145 3145 3143 3142 3143 3143 3147 3147 3147 3148 3149 3151 3152 3152 3152 3152 3153 3153 3153 3154 3155 3156 3157
3081 3081 3081 3081 3081 3081 3082 3082 3083 3084 3085 3086 3087 3088 3089 3089 3090 3091 3091 3092 3093 3095 3097 3098 3099 3100 3101 3103 3104 3105 3107 3108 3109 3111 3113 3113 3114 3115 3116 3117 3119 3120 3122 3123 3124 3126 3127 3129 3130 3132 3133 3135 3137 3139 3140 3139 3141 3143 3145 3145 3144 3144 3144 3144 3144 3143 3143 3142 3142 3143 3143 3145 3146 3147 3147 3149 3151 3151 3152 3152 3152 3152 3152 3152 3153 3154 3155 3156
3078 3078 3078 3078 3078 3078 3078 3079 3079 3080 3081 3082 3083 3085 3086 3086 3087 3088 3089 3089 3090 3092 3094 3095 3096 3097 3099 3100 3101 3103 3105 3105 3107 3109 3110 3111 3113 3113 3114 3116 3117 3118 3121 3122 3124 3125 3127 3129 3130 3131 3133 3135 3137 3138 3138 3138 3139 3141 3143 3143 3143 3143 3143 3142 3142 3142 3141 3141 3142 3143 3143 3144 3145 3146 3147 3149 3150 3151 3151 3151 3151 3152 3151 3151 3153 3153 3155 3155
3075 3075 3075 3075 3075 3075 3075 3075 3076 3076 3077 3079 3080 3081 3082 3083 3084 3085 3086 3087 3088 3090 3091 3093 3093 3095 3097 3098 3099 3101 3102 3104 3106 3105 3106 3109 3111 3111 3112 3114 3115 3117 3119 3121 3123 3124 3126 3129 3130 3130 3133 3135 3137 3137 3137 3137 3138 3140 3140 3141 3142 3142 3142 3141 3141 3141 3141 3140 3141 3142 3143 3145 3145 3145 3147 3148 3150 3151 3151 3151 3151 3151 3150 3151 3152 3153 3154 3155
3072 3072 3072 3072 3072 3072 3072 3072 3072 3073 3074 3075 3076 3077 3079 3080 3081 3081 3083 3084 3085 3087 3088 3090 3090 3092 3094 3095 3097 3098 3100 3104 3102 3100 3104 3107 3108 3109 3110 3112 3114 3116 3117 3119 3121 3123 3124 3127 3129 3130 3132 3134 3136 3136 3136 3136 3136 3138 3139 3139 3140 3141 3141 3140 3140 3140 3139 3139 3141 3143 3144 3144 3144 3145 3146 3148 3149 3150 3151 3151 3148 3147 3148 3150 3151 3152 3154 3154
3069 3069 3069 3068 3068 3069 3068 3069 3069 3069 3070 3071 3072 3074 3075 3076 3077 3078 3079 3080 3082 3084 3085 3087 3088 3089 3091 3092 3094 3095 3099 3102 3097 3097 3102 3103 3105 3107 3108 3110 3112 3114 3115 3117 3119 3121 3123 3126 3128 3129 3131 3132 3134 3134 3135 3136 3135 3136 3137 3137 3138 3139 3140 3140 3139 3138 3138 3140 3142 3142 3142 3142 3143 3146 3146 3148 3148 3147 3148 3147 3144 3145 3147 3148 3151 3153 3153 3154
3066 3066 3066 3065 3065 3065 3065 3065 3065 3066 3067 3068 3069 3070 3071 3072 3073 3074 3075 3077 3078 3080 3082 3084 3085 3087 3088 3090 3091 3092 3094 3096 3094 3096 3099 3100 3102 3104 3105 3108 3110 3112 3113 3115 3117 3119 3121 3124 3126 3128 3130 3131 3132 3133 3134 3135 3134 3134 3136 3136 3136 3137 3138 3138 3138 3137 3137 3139 3140 3140 3141 3141 3144 3145 3145 3147 3145 3144 3146 3145 3143 3146 3148 3148 3151 3153 3153 3154
3064 3063 3063 3063 3062 3062 3061 3062 3062 3063 3064 3064 3065 3066 3067 3068 3070 3071 3072 3073 3075 3077 3079 3081 3083 3083 3085 3087 3088 3089 3089 3094 3095 3095 3096 3098 3100 3101 3103 3105 3107 3109 3111 3113 3116 3118 3120 3122 3124 3127 3129 3130 3131 3132 3133 3134 3133 3133 3134 3135 3136 3135 3136 3137 3137 3137 3137 3138 3139 3139 3140 3142 3143 3143 3144 3146 3143 3143 3145 3144 3144 3146 3148 3149 3151 3153 3153 3153
3061 3060 3060 3060 3059 3059 3058 3059 3059 3060 3060 3061 3062 3063 3064 3065 3066 3067 3068 3069 3071 3074 3076 3078 3079 3080 3082 3084 3085 3086 3086 3092 3093 3091 3094 3096 3097 3099 3101 3103 3105 3107 3109 3112 3114 3116 3118 3120 3123 3125 3127 3129 3130 3130 3131 3132 3132 3131 3132 3133 3134 3134 3135 3135 3136 3136 3137 3138 3138 3139 3140 3142 3142 3142 3144 3145 3143 3142 3143 3143 3145 3147 3147 3148 3150 3152 3153 3153
3057 3057 3057 3056 3056 3056 3056 3056 3056 3057 3057 3058 3059 3059 3060 3061 3062 3063 3064 3066 3068 3070 3073 3075 3076 3077 3079 3080 3082 3083 3084 3089 3089 3089 3093 3094 3095 3097 3098 3100 3102 3105 3107 3110 3112 3114 3116 3119 3122 3124 3126 3128 3129 3129 3130 3130 3130 3130 3130 3132 3132 3133 3134 3134 3134 3135 3136 3137 3138 3139 3140 3141 3141 3141 3143 3143 3142 3142 3143 3143 3145 3146 3146 3147 3149 3152 3152 3152
3054 3054 3053 3053 3053 3053 3053 3053 3053 3054 3054 3054 3055 3056 3057 3058 3059 3060 3061 3063 3064 3067 3069 3071 3073 3073 3075 3076 3077 3079 3082 3085 3087 3087 3090 3091 3093 3095 3096 3098 3100 3102 3105 3107 3110 3112 3115 3118 3121 3124 3125 3125 3126 3127 3127 3128 3129 3129 3129 3130 3131 3131 3132 3132 3133 3134 3135 3136 3136 3138 3140 3141 3141 3141 3142 3142 3141 3143 3144 3144 3146 3146 3145 3147 3149 3151 3151 3152
3051 3050 3050 3050 3050 3050 3050 3050 3050 3051 3051 3051 3052 3053 3054 3054 3056 3057 3058 3059 3061 3064 3066 3068 3069 3070 3071 3071 3071 3076 3079 3082 3084 3085 3087 3089 3090 3092 3094 3096 3098 3100 3103 3105 3108 3110 3113 3117 3119 3121 3123 3123 3124 3126 3125 3126 3127 3128 3128 3129 3129 3130 3130 3130 3131 3133 3134 3135 3136 3138 3139 3139 3140 3141 3142 3141 3141 3143 3144 3145 3147 3147 3146 3147 3149 3150 3151 3151
3048 3047 3047 3047 3047 3047 3047 3047 3048 3048 3048 3048 3049 3050 3050 3052 3053 3054 3055 3056 3058 3061 3063 3065 3065 3066 3067 3064 3069 3076 3077 3079 3081 3081 3084 3086 3088 3090 3092 3094 3096 3098 3100 3103 3107 3109 3111 3114 3117 3119 3121 3122 3123 3124 3123 3124 3125 3126 3127 3127 3127 3127 3127 3128 3129 3131 3133 3134 3135 3137 3136 3136 3138 3140 3140 3140 3141 3143 3145 3146 3147 3147 3147 3147 3148 3149 3150 3150
3045 3045 3044 3044 3044 3044 3044 3044 3044 3045 3045 3045 3046 3047 3048 3049 3050 3051 3052 3054 3056 3058 3060 3061 3062 3064 3061 3061 3068 3073 3073 3076 3077 3078 3082 3084 3085 3088 3090 3092 3094 3096 3098 3101 3104 3107 3109 3112 3114 3116 3118 3119 3121 3122 3121 3122 3124 3124 3125 3125 3125 3123 3122 3124 3127 3129 3131 3133 3134 3135 3134 3133 3136 3138 3139 3139 3141 3143 3144 3146 3147 3147 3146 3147 3148 3150 3150 3150
3043 3042 3042 3041 3041 3041 3041 3041 3041 3042 3042 3043 3043 3044 3045 3046 3047 3048 3049 3051 3053 3055 3057 3058 3060 3060 3058 3060 3067 3069 3070 3072 3073 3077 3080 3081 3083 3085 3087 3090 3092 3094 3096 3098 3101 3105 3108 3110 3111 3112 3115 3117 3119 3120 3120 3121 3122 3122 3123 3122 3122 3121 3119 3121 3124 3126 3129 3130 3132 3134 3132 3130 3132 3135 3136 3138 3141 3142 3144 3146 3146 3146 3145 3147 3149 3149 3149 3149
3040 3040 3039 3039 3039 3038 3038 3038 3038 3039 3039 3040 3041 3042 3042 3043 3044 3045 3047 3048 3050 3052 3054 3055 3056 3057 3057 3059 3062 3065 3067 3068 3072 3076 3076 3078 3080 3083 3086 3088 3090 3092 3094 3096 3099 3101 3103 3105 3107 3110 3113 3115 3116 3117 3119 3119 3118 3119 3119 3118 3119 3119 3117 3118 3121 3124 3127 3129 3131 3133 3130 3127 3129 3132 3135 3137 3140 3142 3144 3145 3145 3145 3145 3147 3148 3148 3148 3149
3038 3037 3037 3037 3036 3036 3036 3036 3036 3037 3037 3038 3039 3039 3040 3041 3042 3043 3044 3046 3048 3050 3051 3052 3054 3055 3056 3056 3059 3063 3065 3067 3070 3072 3072 3075 3078 3081 3083 3085 3088 3091 3093 3095 3096 3098 3100 3102 3106 3108 3111 3112 3113 3116 3115 3113 3113 3115 3116 3116 3116 3117 3115 3115 3118 3122 3125 3127 3129 3130 3128 3127 3128 3131 3134 3136 3139 3141 3143 3144 3145 3144 3144 3146 3148 3147 3148 3149
3036 3035 3035 3035 3034 3034 3034 3034 3034 3035 3036 3036 3036 3037 3038 3039 3040 3041 3042 3043 3045 3047 3048 3049 3051 3054 3054 3055 3058 3062 3063 3065 3067 3068 3070 3073 3075 3078 3081 3083 3086 3089 3091 3093 3094 3097 3099 3102 3105 3107 3108 3109 3109 3111 3110 3108 3110 3111 3113 3114 3113 3114 3113 3113 3116 3119 3122 3124 3127 3127 3127 3128 3129 3131 3133 3135 3138 3140 3142 3144 3144 3142 3143 3146 3147 3146 3147 3148
3033 3033 3032 3032 3032 3032 3032 3033 3033 3034 3034 3034 3034 3036 3037 3038 3038 3039 3040 3041 3041 3043 3045 3046 3048 3051 3054 3054 3056 3059 3060 3061 3063 3066 3068 3070 3073 3076 3079 3082 3085 3087 3089 3091 3092 3095 3097 3100 3103 3102 3102 3103 3105 3107 3107 3108 3109 3110 3111 3112 3111 3111 3111 3112 3114 3117 3120 3123 3124 3125 3126 3128 3129 3131 3132 3134 3136 3139 3141 3143 3143 3142 3142 3144 3146 3146 3146 3145
3031 3030 3030 3030 3030 3030 3031 3031 3032 3032 3032 3032 3033 3034 3036 3037 3038 3038 3038 3038 3038 3041 3044 3045 3044 3048 3053 3054 3055 3056 3056 3057 3061 3064 3066 3068 3071 3074 3077 3080 3083 3085 3087 3089 3091 3093 3096 3097 3097 3096 3098 3101 3103 3105 3107 3108 3108 3108 3110 3110 3110 3110 3110 3111 3112 3114 3118 3121 3122 3124 3124 3125 3128 3130 3131 3132 3134 3138 3140 3141 3141 3142 3142 3143 3146 3145 3142 3140
3028 3028 3027 3028 3028 3028 3029 3030 3030 3031 3031 3031 3032 3033 3034 3036 3037 3037 3035 3035 3037 3038 3040 3042 3042 3045 3049 3052 3052 3052 3053 3056 3059 3062 3063 3066 3069 3073 3075 3078 3080 3082 3084 3088 3091 3092 3094 3093 3092 3094 3098 3101 3103 3105 3107 3107 3107 3107 3107 3108 3109 3109 3109 3110 3111 3113 3117 3119 3120 3123 3123 3123 3126 3129 3130 3131 3134 3136 3137 3138 3140 3142 3143 3143 3145 3144 3139 3138
3026 3025 3025 3025 3026 3027 3028 3029 3029 3029 3030 3030 3030 3031 3032 3033 3034 3034 3034 3034 3035 3035 3036 3038 3039 3041 3044 3046 3048 3049 3052 3055 3057 3059 3061 3063 3067 3070 3073 3075 3078 3080 3083 3087 3088 3089 3090 3088 3090 3094 3097 3100 3102 3104 3105 3105 3106 3106 3106 3107 3106 3107 3108 3109 3112 3114 3117 3118 3118 3121 3122 3122 3125 3127 3128 3130 3133 3134 3135 3136 3138 3141 3143 3143 3144 3142 3137 3138
3023 3023 3023 3023 3024 3025 3026 3027 3028 3029 3029 3029 3029 3030 3030 3030 3031 3032 3032 3032 3032 3032 3033 3034 3035 3038 3040 3043 3046 3047 3049 3053 3056 3057 3058 3060 3064 3068 3071 3073 3076 3079 3081 3082 3083 3084 3084 3085 3089 3094 3096 3098 3100 3102 3103 3104 3105 3105 3105 3104 3104 3105 3106 3106 3110 3114 3116 3116 3116 3119 3121 3121 3124 3126 3128 3129 3131 3132 3133 3135 3137 3138 3140 3140 3140 3138 3135 3138
3021 3021 3021 3021 3022 3023 3024 3026 3027 3028 3028 3028 3028 3028 3029 3029 3030 3031 3030 3030 3029 3029 3030 3031 3033 3035 3037 3041 3044 3045 3047 3050 3054 3056 3055 3058 3062 3066 3069 3072 3075 3077 3078 3079 3081 3082 3082 3084 3089 3092 3094 3096 3098 3099 3101 3102 3103 3104 3103 3103 3102 3103 3103 3104 3109 3113 3116 3116 3114 3116 3119 3119 3122 3125 3127 3128 3130 3132 3133 3134 3135 3136 3137 3137 3136 3134 3134 3138
3019 3019 3019 3019 3021 3022 3023 3024 3025 3026 3027 3027 3027 3027 3028 3028 3029 3029 3029 3029 3027 3026 3027 3029 3030 3031 3034 3038 3040 3042 3045 3047 3050 3054 3054 3055 3060 3064 3068 3071 3072 3074 3075 3078 3080 3080 3082 3085 3087 3090 3092 3094 3096 3097 3098 3100 3101 3102 3101 3101 3102 3101 3102 3105 3109 3112 3114 3113 3112 3114 3116 3116 3120 3123 3125 3127 3129 3130 3131 3132 3134 3135 3134 3134 3135 3135 3135 3138
3016 3016 3017 3018 3019 3021 3021 3022 3023 3025 3026 3026 3026 3026 3027 3028 3028 3028 3028 3028 3025 3023 3024 3025 3026 3028 3030 3033 3036 3040 3044 3043 3046 3051 3052 3053 3059 3063 3066 3068 3069 3071 3074 3077 3079 3079 3081 3083 3085 3087 3089 3091 3093 3094 3096 3099 3099 3099 3099 3101 3101 3101 3102 3104 3107 3110 3110 3110 3111 3114 3113 3113 3116 3120 3122 3125 3128 3128 3129 3131 3132 3133 3132 3132 3133 3135 3136 3137
3014 3014 3015 3016 3017 3019 3019 3020 3022 3023 3024 3024 3024 3026 3026 3027 3027 3028 3028 3028 3022 3019 3021 3023 3024 3025 3026 3030 3033 3036 3039 3040 3043 3048 3050 3051 3056 3061 3064 3065 3067 3069 3072 3076 3076 3075 3077 3080 3082 3084 3087 3089 3090 3091 3094 3097 3098 3097 3098 3100 3100 3099 3100 3103 3107 3109 3108 3109 3110 3112 3112 3110 3112 3116 3119 3122 3125 3126 3127 3128 3129 3129 3129 3129 3131 3133 3134 3135
3011 3012 3013 3014 3015 3017 3018 3019 3020 3022 3022 3022 3023 3025 3025 3026 3027 3027 3028 3026 3018 3016 3019 3020 3021 3022 3025 3028 3030 3033 3036 3040 3042 3043 3047 3050 3053 3059 3061 3062 3065 3067 3069 3072 3071 3072 3075 3078 3079 3082 3084 3086 3087 3090 3093 3095 3096 3096 3097 3100 3101 3099 3099 3102 3106 3107 3106 3106 3105 3108 3111 3109 3109 3114 3117 3120 3123 3124 3125 3125 3125 3126 3126 3127 3129 3130 3131 3134
3009 3010 3011 3012 3014 3015 3016 3017 3018 3019 3020 3020 3022 3024 3024 3025 3026 3026 3028 3024 3016 3015 3017 3017 3018 3020 3024 3027 3028 3032 3036 3039 3040 3041 3046 3049 3051 3056 3058 3060 3064 3066 3067 3069 3070 3072 3074 3075 3078 3081 3083 3084 3086 3089 3092 3094 3094 3095 3096 3099 3102 3101 3100 3102 3104 3104 3105 3102 3099 3103 3109 3106 3105 3111 3115 3117 3119 3121 3123 3123 3122 3123 3124 3125 3126 3128 3130 3132
3006 3007 3009 3010 3012 3013 3014 3015 3017 3018 3019 3020 3021 3022 3023 3025 3025 3025 3026 3020 3014 3014 3016 3016 3017 3019 3022 3024 3027 3030 3033 3036 3039 3040 3043 3047 3050 3054 3058 3060 3063 3065 3066 3067 3069 3071 3072 3075 3077 3079 3081 3083 3086 3088 3090 3092 3093 3094 3096 3098 3101 3102 3102 3103 3102 3103 3102 3097 3096 3101 3106 3105 3104 3108 3112 3113 3115 3118 3118 3119 3119 3120 3121 3122 3123 3126 3128 3131
3004 3005 3007 3008 3010 3011 3012 3014 3015 3016 3017 3018 3019 3021 3023 3023 3023 3022 3019 3014 3012 3013 3014 3015 3016 3018 3020 3023 3025 3028 3030 3034 3036 3037 3040 3044 3047 3051 3054 3056 3059 3062 3063 3064 3066 3068 3070 3072 3074 3076 3079 3082 3085 3086 3088 3091 3091 3093 3096 3097 3099 3100 3101 3102 3101 3101 3098 3092 3094 3100 3103 3104 3103 3106 3109 3111 3113 3115 3115 3115 3116 3117 3119 3120 3122 3124 3127 3130
3002 3003 3004 3006 3007 3009 3011 3012 3013 3014 3015 3017 3019 3020 3021 3022 3020 3017 3013 3011 3011 3011 3012 3014 3015 3017 3019 3021 3023 3025 3028 3031 3032 3034 3037 3040 3043 3046 3048 3050 3053 3055 3056 3058 3063 3065 3066 3068 3071 3074 3077 3079 3081 3082 3086 3088 3089 3092 3094 3094 3094 3095 3098 3099 3097 3097 3094 3090 3093 3098 3099 3101 3101 3103 3106 3108 3111 3113 3113 3113 3114 3116 3117 3119 3121 3124 3126 3128
2999 3000 3002 3003 3005 3007 3009 3010 3012 3013 3014 3016 3018 3019 3021 3020 3015 3011 3010 3010 3010 3010 3011 3012 3013 3016 3018 3019 3021 3023 3027 3028 3029 3033 3036 3038 3041 3044 3046 3047 3050 3052 3052 3055 3060 3061 3062 3065 3069 3072 3073 3075 3077 3078 3081 3083 3086 3089 3090 3089 3089 3088 3092 3095 3092 3092 3093 3091 3092 3095 3096 3098 3101 3104 3105 3105 3107 3110 3110 3111 3112 3115 3117 3118 3120 3123 3125 3127
2997 2998 3000 3001 3003 3005 3007 3009 3010 3012 3013 3015 3017 3018 3019 3016 3010 3008 3009 3009 3009 3010 3011 3011 3012 3015 3016 3017 3018 3021 3024 3025 3027 3031 3034 3036 3038 3041 3043 3045 3047 3050 3051 3054 3056 3056 3057 3059 3063 3066 3068 3071 3073 3075 3078 3081 3084 3087 3087 3087 3086 3084 3087 3091 3089 3089 3091 3091 3092 3092 3092 3094 3098 3103 3104 3104 3104 3107 3109 3110 3112 3114 3116 3118 3120 3122 3124 3126
2995 2996 2997 2999 3001 3003 3005 3007 3009 3010 3012 3013 3015 3016 3014 3010 3008 3008 3008 3008 3009 3010 3010 3011 3013 3014 3015 3016 3016 3018 3021 3022 3025 3029 3030 3032 3034 3036 3039 3041 3043 3046 3048 3050 3052 3053 3055 3056 3060 3064 3067 3068 3071 3074 3078 3081 3083 3085 3086 3086 3084 3082 3085 3088 3088 3087 3088 3089 3090 3090 3091 3094 3098 3101 3104 3104 3105 3106 3108 3110 3111 3113 3115 3117 3119 3120 3123 3125
2993 2994 2995 2997 2999 3001 3003 3005 3007 3009 3010 3012 3013 3011 3009 3007 3007 3007 3006 3007 3009 3009 3010 3011 3012 3013 3014 3014 3014 3016 3019 3020 3023 3026 3027 3029 3032 3034 3036 3039 3041 3044 3045 3047 3048 3050 3053 3054 3057 3063 3066 3068 3070 3073 3076 3077 3079 3082 3083 3082 3082 3083 3084 3085 3087 3088 3088 3088 3087 3089 3093 3097 3100 3102 3103 3103 3104 3106 3107 3108 3110 3111 3113 3115 3117 3120 3122 3123
2991 2992 2993 2996 2998 3000 3002 3004 3006 3007 3009 3010 3010 3007 3006 3006 3007 3007 3006 3007 3008 3008 3010 3010 3009 3010 3011 3012 3012 3013 3016 3019 3021 3023 3025 3026 3028 3031 3034 3037 3040 3042 3044 3046 3048 3049 3051 3051 3054 3060 3064 3066 3070 3073 3074 3076 3077 3078 3079 3080 3083 3085 3084 3085 3086 3087 3087 3086 3083 3086 3092 3096 3098 3100 3102 3103 3104 3105 3106 3107 3108 3109 3111 3114 3116 3118 3121 3122
2989 2991 2992 2994 2997 2999 3000 3002 3004 3006 3008 3008 3007 3005 3005 3006 3007 3008 3006 3006 3007 3007 3009 3009 3008 3009 3009 3010 3011 3011 3013 3016 3019 3021 3023 3023 3024 3027 3031 3035 3037 3041 3044 3046 3048 3049 3050 3051 3054 3059 3062 3064 3069 3071 3072 3073 3075 3076 3078 3081 3083 3083 3083 3085 3084 3083 3084 3083 3081 3084 3089 3093 3095 3096 3098 3101 3102 3103 3105 3106 3106 3108 3110 3113 3115 3117 3119 3121
2988 2990 2991 2993 2995 2997 2999 3001 3003 3005 3006 3006 3005 3004 3004 3004 3006 3008 3007 3006 3007 3006 3007 3008 3008 3008 3007 3008 3009 3010 3011 3013 3016 3019 3021 3022 3023 3025 3028 3031 3035 3039 3042 3045 3047 3049 3049 3050 3052 3057 3061 3063 3066 3067 3067 3069 3073 3074 3076 3079 3080 3080 3082 3083 3082 3081 3083 3082 3082 3086 3088 3089 3091 3092 3095 3098 3098 3101 3103 3104 3105 3107 3109 3112 3114 3116 3118 3120
2987 2989 2990 2992 2994 2995 2997 3000 3002 3003 3003 3003 3004 3004 3005 3005 3006 3007 3007 3007 3007 3006 3006 3007 3007 3008 3007 3007 3008 3009 3010 3012 3015 3018 3019 3020 3022 3024 3026 3030 3033 3037 3041 3044 3046 3048 3049 3050 3051 3056 3059 3060 3060 3061 3062 3065 3068 3071 3072 3073 3075 3078 3080 3082 3082 3082 3082 3081 3082 3085 3085 3086 3089 3091 3093 3095 3097 3099 3101 3103 3104 3107 3109 3111 3113 3115 3117 3119
2986 2988 2989 2990 2992 2994 2996 2998 2999 3000 3001 3002 3003 3004 3004 3005 3006 3006 3006 3006 3006 3005 3004 3004 3006 3007 3008 3007 3006 3006 3009 3012 3014 3017 3018 3019 3021 3023 3025 3029 3032 3035 3039 3042 3044 3046 3047 3049 3051 3053 3055 3055 3055 3058 3061 3064 3066 3068 3070 3070 3071 3074 3077 3079 3079 3080 3080 3080 3079 3080 3082 3085 3089 3091 3093 3095 3098 3099 3100 3102 3104 3107 3109 3111 3113 3114 3116 3117
2985 2986 2988 2989 2991 2993 2995 2997 2998 3000 3001 3002 3003 3003 3004 3004 3005 3005 3006 3006 3006 3004 3002 3003 3004 3005 3006 3007 3006 3006 3008 3010 3013 3015 3016 3018 3020 3021 3024 3028 3031 3034 3037 3039 3042 3044 3045 3047 3050 3050 3050 3052 3055 3058 3061 3063 3065 3068 3069 3068 3069 3071 3073 3074 3075 3077 3078 3077 3075 3076 3080 3086 3089 3091 3093 3095 3097 3098 3100 3102 3104 3106 3108 3110 3112 3113 3114 3115
2984 2986 2987 2988 2990 2992 2994 2997 2999 3000 3000 3001 3002 3003 3004 3003 3004 3004 3005 3005 3005 3003 3002 3002 3004 3006 3006 3006 3007 3007 3008 3009 3011 3014 3015 3016 3019 3021 3024 3027 3030 3033 3035 3037 3040 3043 3044 3046 3047 3048 3050 3052 3056 3058 3060 3062 3064 3066 3067 3067 3067 3068 3070 3072 3072 3075 3075 3074 3073 3073 3079 3087 3090 3091 3093 3094 3096 3097 3099 3102 3104 3106 3107 3109 3110 3111 3113 3114
2983 2985 2986 2987 2989 2992 2993 2995 2998 3000 3000 3001 3002 3002 3003 3003 3004 3004 3004 3004 3003 3002 3001 3001 3003 3006 3006 3006 3007 3007 3007 3008 3010 3013 3014 3015 3018 3021 3023 3026 3029 3031 3033 3036 3038 3040 3043 3044 3045 3047 3048 3049 3052 3053 3056 3059 3061 3061 3063 3065 3066 3067 3070 3071 3071 3073 3074 3073 3073 3074 3079 3086 3089 3090 3092 3093 3094 3096 3098 3100 3103 3105 3106 3108 3109 3110 3111 3113
2983 2984 2985 2987 2989 2990 2992 2993 2996 2998 2998 3000 3000 3001 3001 3002 3002 3002 3002 3002 3001 3000 3000 3000 3002 3004 3005 3005 3006 3006 3006 3008 3009 3012 3014 3015 3017 3020 3023 3026 3028 3031 3033 3035 3038 3040 3041 3043 3044 3044 3043 3042 3044 3045 3048 3053 3057 3058 3060 3063 3065 3066 3068 3070 3070 3072 3074 3073 3073 3074 3078 3084 3087 3089 3091 3092 3093 3095 3096 3099 3101 3103 3105 3106 3108 3109 3110 3112
2983 2984 2984 2986 2988 2990 2991 2993 2993 2995 2996 2999 2999 2999 3000 3001 3000 2999 2999 2999 2999 2999 3000 2999 3000 3002 3003 3004 3005 3005 3006 3007 3008 3010 3012 3013 3016 3020 3023 3025 3028 3031 3033 3035 3038 3040 3041 3042 3043 3044 3041 3041 3044 3046 3048 3053 3056 3057 3058 3060 3062 3064 3066 3068 3069 3070 3073 3074 3073 3073 3076 3080 3084 3087 3089 3090 3091 3093 3095 3097 3100 3101 3103 3105 3107 3108 3109 3111
2982 2983 2984 2986 2988 2990 2991 2992 2993 2994 2996 2997 2998 2998 2999 3000 2998 2997 2997 2998 2998 2999 2999 2998 2999 3000 3001 3003 3004 3004 3005 3006 3007 3009 3010 3011 3014 3019 3022 3024 3027 3029 3031 3034 3037 3039 3041 3042 3042 3043 3043 3043 3045 3048 3050 3053 3054 3056 3057 3058 3060 3062 3064 3067 3068 3069 3072 3073 3073 3074 3075 3077 3082 3085 3086 3088 3089 3091 3093 3096 3099 3100 3102 3104 3106 3107 3108 3110
2982 2983 2984 2986 2988 2989 2990 2992 2993 2994 2995 2996 2996 2997 2998 2997 2996 2996 2996 2997 2997 2997 2997 2997 2997 2999 3000 3003 3005 3004 3004 3005 3008 3009 3010 3010 3014 3018 3021 3023 3026 3028 3030 3034 3037 3038 3040 3041 3042 3043 3044 3044 3045 3047 3050 3052 3053 3055 3057 3058 3060 3062 3064 3066 3067 3070 3073 3073 3073 3075 3075 3077 3081 3084 3084 3085 3087 3090 3093 3096 3098 3100 3102 3103 3105 3106 3107 3109
2982 2983 2984 2985 2986 2987 2990 2992 2993 2994 2995 2995 2995 2996 2996 2995 2995 2995 2996 2995 2994 2994 2994 2994 2995 2998 3000 3002 3004 3004 3003 3004 3006 3008 3010 3011 3014 3017 3019 3022 3025 3027 3030 3034 3036 3038 3039 3040 3041 3043 3044 3045 3046 3048 3050 3052 3053 3055 3057 3059 3061 3063 3065 3067 3069 3071 3073 3072 3074 3076 3077 3078 3081 3082 3082 3084 3086 3089 3092 3095 3097 3099 3101 3102 3104 3105 3106 3108
2982 2983 2983 2985 2985 2986 2989 2991 2991 2993 2994 2994 2995 2995 2994 2993 2994 2994 2994 2993 2992 2991 2992 2992 2994 2996 2999 3000 3002 3003 3004 3005 3005 3007 3009 3011 3013 3016 3018 3020 3023 3026 3030 3033 3035 3037 3038 3039 3041 3043 3044 3045 3047 3049 3050 3052 3054 3056 3058 3060 3062 3064 3066 3068 3070 3072 3073 3073 3075 3076 3076 3077 3079 3080 3081 3083 3086 3089 3092 3094 3096 3098 3100 3101 3103 3104 3105 3106
2983 2983 2984 2985 2985 2986 2989 2990 2990 2992 2993 2993 2994 2994 2993 2993 2993 2994 2993 2991 2990 2990 2990 2992 2993 2995 2996 2999 3000 3002 3004 3005 3006 3008 3010 3011 3012 3014 3017 3019 3022 3025 3029 3032 3033 3035 3037 3039 3041 3043 3044 3045 3047 3049 3050 3052 3055 3058 3059 3060 3063 3065 3066 3067 3069 3071 3072 3073 3075 3076 3075 3076 3077 3079 3081 3084 3086 3089 3091 3093 3096 3098 3099 3101 3102 3103 3104 3105
2983 2984 2985 2985 2986 2987 2989 2990 2990 2992 2993 2993 2993 2993 2992 2992 2993 2993 2993 2991 2990 2989 2990 2991 2994 2994 2995 2997 2998 3000 3003 3005 3006 3008 3010 3011 3012 3013 3016 3020 3022 3025 3028 3030 3032 3035 3037 3039 3040 3042 3044 3045 3047 3048 3050 3053 3056 3058 3058 3058 3061 3064 3064 3065 3067 3069 3071 3072 3075 3076 3076 3076 3077 3079 3080 3083 3086 3088 3090 3093 3095 3097 3098 3100 3101 3102 3103 3104